User: anonymous   Login
Location: Bishop's University Astronomical Observatory
(45.3661°N, 71.8475°W)
Time: 14:07:49
(UTC-04:00)
Language:

Meteor 2-5 Rocket - Orbit

View from above orbital plane
View from above orbital plane
View from above satellite
View from above satellite

Ground track
Ground track

The orbit data is extracted from the following two-line orbital elements,

1 11608U 79095B   16180.51415742  .00000108  00000-0  57309-4 0  9998
2 11608  81.2126 194.2096 0055474  76.6283 284.1062 14.06101782880375
Epoch (UTC): 28 June 2016 12:20:23
Eccentricity: 0.0055474
inclination: 81.2126°
perigee height: 832 km
apogee height: 913 km
right ascension of ascending node: 194.2096°
argument of perigee: 76.6283°
revolutions per day: 14.06101782
mean anomaly at epoch: 284.1062°
orbit number at epoch: 88037

The dashed part of the orbit path shows where the satellite is in the earth's shadow,  

DLR